Wind_Speed
20 20 20 20 20 22 22 23 23 21 21 19 20 20 20 20 20 21 20 20 21 22 23 23 24 24 25 26 27 28 29 29 29 30 30 30 30 31 31 31 31 31 31 31
22 22 22 22 21 22 23 23 23 22 21 21 21 21 22 22 22 22 22 22 23 23 24 25 25 26 27 27 28 29 30 30 30 31 31 31 32 32 33 33 32 32 32 31
23 24 24 23 21 22 24 24 24 23 22 22 23 23 23 23 24 24 24 24 24 24 25 26 27 28 28 28 29 30 30 31 32 32 32 32 32 33 33 34 33 33 33 33
25 25 25 22 22 23 24 23 24 24 24 24 24 24 24 23 23 23 24 24 25 26 26 27 27 28 29 29 30 30 30 31 32 32 33 33 33 33 33 34 33 33 33 33
25 26 26 23 22 24 25 24 24 25 25 25 24 24 25 26 26 25 26 27 27 26 27 27 27 28 28 29 29 29 30 31 31 32 33 34 34 34 35 34 34 34 34 34
25 26 26 24 23 24 26 25 26 27 27 26 26 26 26 27 27 28 28 27 27 27 27 28 28 28 28 28 28 28 29 30 31 32 33 34 35 35 35 35 35 36 36 35
25 26 27 25 24 24 25 25 27 28 28 28 27 27 27 27 28 28 28 28 28 28 28 29 29 29 29 29 29 29 30 30 31 32 33 34 35 35 35 35 35 36 36 36
25 26 26 26 26 26 26 27 28 28 28 28 28 27 27 28 28 28 28 28 29 29 30 30 29 29 30 30 30 30 31 31 31 32 33 34 34 35 35 35 35 36 36 36
27 26 26 26 27 28 28 29 29 29 29 29 29 28 28 29 29 29 29 29 29 29 30 30 30 30 31 31 31 31 31 31 31 31 32 33 33 34 34 35 36 36 36 36
27 26 26 26 27 29 29 29 29 30 31 31 30 30 31 31 31 30 30 30 31 30 30 30 30 31 32 32 32 32 32 32 32 32 32 33 33 34 35 36 37 37 37 37
29 27 28 28 28 29 30 30 30 31 31 32 31 30 30 30 31 31 31 31 32 32 31 31 31 31 32 33 33 33 33 33 33 34 34 33 33 34 34 35 37 37 37 37
30 29 30 30 29 30 31 31 31 32 32 32 32 32 31 31 31 31 31 32 32 32 32 32 32 32 33 32 33 33 33 33 34 34 34 34 34 34 35 35 36 37 37 37
31 31 31 31 31 31 32 32 32 32 33 33 33 33 32 32 32 32 32 33 33 33 33 33 33 33 33 33 33 34 34 34 34 34 34 34 34 35 35 35 36 37 36 36
33 33 33 32 32 33 33 33 33 33 33 34 34 34 34 34 34 34 34 34 34 34 34 34 34 34 34 34 34 35 35 35 34 34 34 34 35 35 35 35 35 35 35 35
33 33 34 33 34 34 34 33 34 34 33 34 34 34 35 35 36 36 35 35 35 35 35 35 35 35 35 35 35 35 35 35 34 35 35 35 35 35 35 35 35 35 35 35
33 33 33 33 34 35 35 35 35 35 35 35 35 35 35 36 36 36 35 35 36 36 36 36 36 36 36 36 36 36 35 35 35 35 35 35 35 35 35 35 35 35 34 34
32 33 32 32 32 33 34 34 35 35 35 35 35 34 34 34 34 35 35 35 36 36 36 36 35 36 36 35 35 35 35 35 35 35 35 35 35 35 35 35 35 33 33 32
32 32 32 32 32 32 33 33 33 33 33 33 33 33 34 34 34 33 34 34 35 34 34 34 34 34 34 34 34 34 34 34 34 35 35 35 35 35 34 34 33 32 31 31
31 31 32 32 31 32 32 33 33 33 32 32 32 32 33 33 32 32 32 33 33 33 33 34 34 34 33 33 33 33 33 33 34 34 34 34 33 33 33 32 32 31 30 30
31 31 31 31 30 31 31 31 32 32 32 32 32 32 32 31 31 32 32 31 31 32 33 33 33 32 32 32 32 33 33 33 33 32 32 32 31 31 31 30 30 30 30 30
30 30 30 30 30 30 31 31 31 31 31 31 31 30 30 31 31 31 31 31 32 32 32 32 31 31 30 31 31 31 31 31 31 31 30 30 30 29 29 29 29 28 28 28
30 30 30 30 30 30 30 30 31 31 31 30 30 30 30 31 31 31 31 31 30 30 30 30 30 30 29 29 30 30 30 30 30 29 29 29 29 28 27 27 27 26 26 25
30 30 29 29 29 30 30 30 30 29 29 29 29 29 29 29 29 30 30 30 30 30 30 29 29 29 29 29 29 29 29 29 28 28 28 28 27 27 27 26 25 24 23 23
29 29 28 28 28 28 28 28 28 28 28 28 27 27 28 28 29 29 29 29 29 29 29 29 29 29 29 28 28 28 27 27 27 26 26 27 26 26 25 24 24 23 23 22
28 28 27 27 27 27 26 27 27 27 27 27 27 27 27 28 29 29 28 28 28 28 28 27 27 28 28 28 27 27 26 25 25 25 25 25 24 24 23 23 23 23 23 22
28 28 28 27 26 26 25 26 26 26 26 27 27 27 28 28 28 28 28 27 27 27 27 26 26 26 26 26 25 25 25 24 24 24 24 24 23 23 23 23 23 23 22 22
27 27 26 25 25 24 24 25 25 25 26 26 26 26 26 26 26 26 26 25 25 25 24 24 24 23 23 23 23 23 23 23 23 23 23 23 23 23 23 23 22 22 22 21
Wind_Direction
269 268 266 264 263 264 264 265 267 269 269 270 271 272 273 274 276 278 277 279 281 281 280 279 280 281 282 281 278 277 277 277 278 279 281 282 283 284 286 287 290 291 290 290
269 269 267 266 264 264 264 264 266 268 268 268 270 273 275 276 277 278 277 277 279 282 282 281 282 283 283 282 280 278 277 277 278 279 281 283 284 284 285 286 288 289 290 291
270 269 269 267 265 264 265 265 267 269 270 270 271 273 276 276 276 277 277 277 277 280 282 282 282 283 283 283 281 278 278 279 279 279 280 282 284 285 285 286 287 288 289 290
271 270 269 270 266 263 265 267 266 268 269 271 272 274 274 274 276 278 278 277 279 280 281 282 284 285 285 284 283 281 280 280 280 280 281 282 284 285 286 286 286 288 288 289
271 270 269 267 266 264 263 267 268 268 269 271 272 272 272 274 275 278 279 278 280 280 281 282 284 286 287 287 287 284 282 282 282 282 282 283 284 285 286 285 286 286 288 289
271 271 271 269 267 265 265 267 266 267 269 272 273 274 274 275 276 278 279 280 280 280 281 283 285 287 289 289 288 287 285 284 284 284 284 285 285 285 285 285 284 285 287 287
274 272 271 269 268 267 268 270 268 268 270 273 275 276 276 277 278 279 279 280 281 281 281 283 284 286 287 288 287 287 286 286 287 287 287 288 287 285 285 285 285 286 286 286
273 271 270 270 269 268 270 271 271 270 271 273 275 275 277 278 279 280 280 281 281 281 281 282 283 285 286 288 287 287 287 287 288 289 290 290 288 286 286 286 286 286 286 286
273 272 271 272 271 270 270 271 271 271 271 273 274 275 276 278 279 279 279 281 282 282 281 282 283 285 287 288 289 289 288 289 290 291 292 291 290 288 287 287 287 287 287 287
273 273 273 273 271 270 271 271 272 272 271 272 274 275 276 277 278 278 279 280 281 282 282 282 283 284 286 288 288 288 288 289 291 292 292 293 292 290 289 288 288 289 288 287
272 272 272 273 272 270 269 270 271 273 273 272 273 275 277 277 277 278 279 280 281 281 281 282 283 283 284 287 287 287 287 289 291 292 292 292 293 293 292 291 290 289 288 287
274 273 273 273 273 271 270 270 272 273 272 273 275 276 277 277 278 278 280 280 280 280 280 280 281 281 283 285 286 286 287 288 290 291 291 292 293 293 293 293 292 292 289 288
274 273 274 274 270 270 271 271 271 273 273 275 275 275 276 277 277 278 280 281 280 279 279 279 280 281 282 284 286 287 287 287 288 289 290 292 293 293 294 294 294 293 291 289
275 273 273 272 271 270 270 271 272 273 273 274 275 275 275 276 278 278 279 280 280 280 279 279 281 282 283 285 286 288 288 287 288 289 291 293 294 294 295 296 296 294 292 290
276 276 275 274 272 270 271 272 273 274 275 275 276 276 276 277 278 279 279 280 280 280 280 280 282 283 284 285 287 288 288 288 289 290 291 293 295 295 296 297 297 296 293 291
277 276 277 277 274 272 272 272 273 274 275 275 274 275 276 278 279 278 278 278 279 279 280 281 283 284 284 285 287 288 288 289 290 291 292 294 295 296 296 297 297 297 294 292
277 278 278 277 276 275 274 274 273 275 276 276 274 275 277 278 279 279 278 278 279 279 279 281 282 283 284 285 286 287 288 289 290 291 292 293 294 294 295 296 297 297 295 294
278 278 277 276 276 275 274 274 275 275 277 277 275 275 277 278 279 279 278 279 279 280 280 281 282 284 284 285 286 287 287 288 289 291 292 293 294 294 295 295 296 296 294 293
278 278 277 275 275 275 275 274 274 275 277 277 276 276 277 278 278 279 279 279 280 280 281 283 283 284 285 286 287 287 287 288 288 290 292 292 293 294 295 296 296 296 294 292
280 279 278 277 276 276 275 275 274 275 276 277 277 277 276 277 278 278 279 280 280 281 282 282 283 284 285 286 286 287 288 288 289 290 292 293 293 294 295 296 296 296 293 292
281 281 279 276 275 275 275 275 275 275 275 276 277 277 276 277 277 278 278 279 281 282 283 283 284 285 285 285 286 287 288 289 290 291 292 293 294 295 296 297 297 297 295 293
282 282 280 278 277 278 277 277 276 276 276 276 276 277 277 277 278 279 280 280 281 283 284 285 285 285 285 285 286 287 287 287 289 290 291 292 294 295 296 297 298 298 297 294
282 282 281 281 280 279 278 277 277 277 277 277 277 278 279 278 279 281 281 281 281 282 283 284 285 285 284 285 285 286 286 287 288 289 290 291 293 294 295 297 298 298 298 296
282 282 281 280 280 280 279 278 277 276 276 276 278 279 279 278 279 281 283 284 282 283 284 284 284 284 284 285 286 286 286 286 287 288 290 291 293 294 295 296 296 297 297 297
281 280 281 280 279 279 278 277 275 276 277 277 279 280 281 281 281 281 282 283 285 285 285 286 285 284 284 284 285 285 286 286 287 288 290 291 292 292 292 293 295 296 296 296
281 281 281 280 279 278 276 276 277 278 279 279 280 280 280 280 281 282 283 284 285 285 285 286 287 285 283 283 284 285 286 288 289 290 291 292 293 292 292 294 295 295 294 294
281 281 281 280 280 279 279 279 279 279 280 282 283 283 283 283 283 283 283 284 284 285 285 286 287 286 286 286 287 288 288 289 290 291 292 291 291 291 292 292 292 293 293 294
Height
5775 5775 5775 5776 5777 5777 5777 5777 5778 5779 5779 5780 5779 5778 5778 5777 5777 5777 5776 5776 5775 5775 5774 5773 5772 5771 5770 5769 5768 5767 5767 5766 5766 5765 5764 5763 5761 5760 5758 5756 5754 5751 5749 5747
5769 5769 5769 5769 5770 5770 5771 5771 5772 5772 5773 5774 5773 5772 5772 5772 5771 5771 5770 5769 5769 5768 5767 5766 5765 5764 5762 5761 5760 5759 5758 5758 5757 5756 5755 5754 5752 5751 5749 5747 5745 5743 5740 5738
5763 5762 5761 5762 5764 5764 5765 5765 5766 5766 5768 5767 5767 5767 5766 5765 5765 5764 5764 5763 5762 5761 5760 5759 5758 5756 5755 5753 5752 5750 5749 5748 5748 5747 5746 5745 5743 5742 5740 5738 5736 5733 5731 5729
5756 5756 5755 5759 5757 5758 5758 5759 5759 5760 5760 5761 5761 5760 5759 5759 5758 5757 5756 5756 5755 5753 5752 5751 5750 5748 5746 5744 5742 5741 5740 5739 5738 5738 5737 5735 5734 5732 5730 5728 5726 5724 5722 5719
5748 5748 5748 5751 5751 5751 5752 5753 5753 5753 5753 5753 5753 5753 5753 5752 5751 5750 5749 5748 5747 5746 5745 5743 5742 5740 5738 5736 5734 5732 5731 5730 5729 5728 5727 5726 5724 5722 5721 5719 5716 5714 5712 5710
5741 5740 5741 5745 5745 5744 5746 5746 5746 5746 5746 5746 5746 5746 5746 5744 5744 5743 5742 5741 5739 5738 5737 5736 5734 5732 5731 5729 5727 5725 5723 5721 5720 5718 5717 5716 5714 5712 5710 5708 5706 5704 5703 5700
5734 5733 5734 5737 5737 5737 5739 5740 5739 5739 5739 5739 5739 5739 5738 5737 5736 5735 5734 5733 5732 5731 5730 5728 5726 5724 5723 5721 5719 5717 5715 5713 5711 5709 5707 5705 5703 5701 5700 5698 5696 5694 5693 5691
5727 5727 5730 5730 5729 5730 5731 5731 5731 5731 5731 5731 5731 5730 5729 5729 5728 5727 5726 5725 5723 5722 5721 5720 5718 5716 5715 5713 5711 5709 5707 5705 5703 5700 5698 5696 5693 5692 5690 5688 5686 5684 5682 5680
5721 5723 5722 5722 5722 5722 5722 5723 5723 5723 5723 5723 5722 5722 5721 5721 5720 5719 5718 5717 5715 5714 5713 5711 5709 5708 5706 5704 5702 5700 5698 5696 5694 5692 5689 5686 5684 5682 5680 5677 5675 5674 5671 5669
5714 5715 5714 5714 5714 5714 5714 5715 5715 5714 5714 5714 5714 5714 5713 5712 5711 5710 5709 5708 5707 5705 5704 5702 5701 5699 5697 5695 5693 5691 5690 5688 5685 5683 5680 5677 5674 5672 5669 5667 5665 5663 5661 5658
5706 5707 5707 5707 5706 5706 5706 5706 5706 5706 5706 5705 5705 5705 5704 5704 5703 5702 5701 5699 5698 5696 5695 5693 5692 5690 5688 5686 5684 5683 5681 5679 5676 5674 5671 5668 5665 5662 5660 5657 5654 5652 5650 5647
5698 5699 5698 5699 5698 5697 5697 5697 5697 5697 5697 5697 5696 5696 5695 5695 5694 5693 5691 5690 5688 5687 5686 5684 5683 5681 5679 5677 5675 5673 5671 5669 5667 5664 5662 5659 5656 5653 5649 5647 5644 5641 5638 5636
5689 5689 5689 5689 5689 5689 5688 5688 5688 5688 5688 5688 5688 5687 5686 5685 5684 5683 5682 5680 5679 5678 5676 5675 5673 5672 5670 5668 5666 5664 5662 5659 5657 5655 5652 5649 5646 5643 5640 5637 5633 5630 5627 5624
5679 5679 5679 5679 5679 5679 5679 5679 5679 5679 5679 5678 5678 5677 5676 5675 5674 5673 5672 5671 5669 5668 5666 5665 5664 5662 5660 5658 5656 5654 5652 5649 5647 5645 5642 5639 5636 5633 5630 5627 5624 5620 5617 5614
5669 5669 5669 5669 5669 5669 5669 5669 5669 5669 5669 5668 5667 5667 5666 5665 5664 5663 5662 5660 5659 5658 5656 5655 5654 5653 5651 5649 5647 5644 5642 5640 5637 5635 5632 5629 5626 5623 5620 5617 5614 5610 5607 5604
5660 5659 5659 5659 5659 5658 5658 5659 5659 5658 5658 5657 5657 5656 5655 5654 5653 5652 5651 5650 5649 5648 5646 5645 5644 5642 5640 5639 5637 5634 5632 5629 5627 5625 5622 5619 5616 5613 5610 5607 5603 5600 5597 5594
5650 5650 5649 5649 5649 5648 5648 5648 5648 5647 5647 5647 5646 5645 5644 5644 5642 5641 5640 5639 5638 5637 5636 5635 5634 5632 5630 5628 5627 5625 5622 5620 5617 5615 5612 5609 5606 5603 5600 5597 5593 5590 5587 5583
5640 5640 5640 5640 5639 5639 5639 5638 5638 5637 5636 5636 5635 5635 5634 5633 5632 5631 5630 5629 5628 5627 5626 5625 5623 5622 5620 5618 5617 5615 5612 5610 5607 5605 5602 5599 5596 5593 5590 5587 5584 5581 5577 5574
5631 5630 5630 5630 5629 5629 5628 5628 5628 5627 5626 5626 5625 5624 5624 5623 5622 5621 5620 5619 5618 5617 5616 5614 5613 5611 5610 5608 5606 5604 5602 5600 5597 5595 5592 5589 5586 5583 5580 5577 5574 5571 5568 5566
5622 5621 5620 5620 5619 5619 5618 5618 5617 5617 5616 5616 5615 5614 5613 5613 5612 5611 5610 5610 5608 5607 5606 5604 5602 5601 5599 5597 5596 5594 5592 5590 5587 5585 5582 5580 5577 5574 5571 5568 5565 5562 5559 5557
5612 5611 5611 5610 5610 5609 5608 5608 5607 5607 5606 5606 5605 5604 5604 5603 5603 5602 5601 5600 5599 5597 5596 5594 5592 5591 5589 5587 5586 5584 5582 5580 5578 5576 5573 5571 5568 5566 5563 5560 5557 5554 5551 5548
5602 5602 5601 5600 5599 5599 5598 5598 5597 5597 5596 5596 5595 5595 5595 5594 5593 5593 5591 5590 5589 5587 5586 5584 5582 5581 5579 5578 5576 5574 5572 5571 5568 5566 5564 5562 5560 5557 5555 5552 5549 5546 5543 5541
5593 5592 5591 5590 5590 5589 5588 5588 5587 5587 5586 5586 5586 5585 5585 5584 5584 5583 5582 5581 5579 5578 5576 5575 5573 5571 5570 5568 5566 5565 5563 5561 5559 5557 5555 5553 5551 5549 5547 5544 5541 5539 5536 5533
5584 5583 5582 5581 5580 5580 5579 5578 5578 5578 5577 5577 5577 5576 5576 5575 5575 5574 5573 5571 5570 5568 5567 5565 5564 5562 5560 5559 5557 5555 5554 5552 5550 5549 5547 5545 5543 5541 5539 5536 5534 5532 5529 5527
5575 5574 5573 5572 5572 5571 5570 5570 5570 5569 5569 5568 5568 5567 5567 5566 5566 5565 5564 5562 5561 5559 5558 5556 5554 5553 5551 5549 5548 5547 5545 5544 5542 5540 5539 5537 5535 5533 5531 5529 5527 5525 5522 5520
5566 5565 5565 5564 5563 5562 5562 5562 5561 5561 5560 5560 5559 5559 5558 5557 5556 5556 5555 5553 5552 5550 5549 5547 5546 5544 5542 5541 5539 5538 5537 5535 5534 5532 5531 5529 5527 5525 5524 5522 5520 5518 5516 5514
5558 5557 5556 5556 5555 5554 5554 5554 5553 5552 5552 5551 5551 5550 5549 5548 5548 5547 5546 5544 5543 5542 5540 5539 5538 5536 5535 5533 5532 5531 5530 5528 5527 5525 5523 5521 5520 5518 5516 5515 5513 5511 5509 5507